KI4CGS Weather Reports


time (UTC)temp
C
wind
direction
speed
KPH
gust
KPH
rain 1hr
cm
rain 24hr
cm
rain mn
cm
humidity
%
barometer
mb
20260504081531 6 0 0.0 0.0 0.00 0.00 0.00 89 1018.1
20260504081011 6 0 0.0 0.0 0.00 0.00 0.00 89 1018.1
20260504080510 6 0 0.0 0.0 0.00 0.00 0.00 89 1018.1
20260504050510 8 0 0.0 1.6 0.00 0.00 0.00 84 1018.9
20260504045509 8 0 0.0 0.0 0.00 0.00 0.00 83 1018.9
20260504045012 8 0 0.0 1.6 0.00 0.00 0.00 83 1018.9
20260504044540 8 0 0.0 1.6 0.00 0.00 0.00 83 1018.8
20260504044011 8 0 0.0 1.6 0.00 0.00 0.00 83 1018.8
20260504043513 8 0 0.0 1.6 0.00 0.00 0.00 82 1018.9
20260504043032 8 0 0.0 1.6 0.00 0.00 0.00 81 1019.0
20260504042511 8 0 0.0 3.2 0.00 0.00 0.00 81 1019.1
20260504042013 8 0 0.0 3.2 0.00 0.00 0.00 80 1019.1
20260504041531 8 242 0.0 3.2 0.00 0.00 0.00 80 1019.1
20260504041008 9 0 0.0 1.6 0.00 0.00 0.00 79 1019.2
20260504040511 9 242 0.0 1.6 0.00 0.00 0.00 78 1019.1
20260504040030 9 0 0.0 0.0 0.00 0.00 0.00 77 1019.2
20260504035510 9 0 0.0 0.0 0.00 0.00 0.00 76 1019.2
20260504035013 10 0 0.0 0.0 0.00 0.00 0.00 76 1019.1
20260504034551 10 0 0.0 0.0 0.00 0.00 0.00 76 1019.1
20260504034010 10 0 0.0 0.0 0.00 0.00 0.00 75 1019.2
20260504033510 10 0 0.0 3.2 0.00 0.00 0.00 75 1019.1
20260504033029 10 0 0.0 3.2 0.00 0.00 0.00 75 1019.1
20260504032509 10 0 0.0 0.0 0.00 0.00 0.00 75 1018.9
20260504032014 10 0 0.0 1.6 0.00 0.00 0.00 74 1018.9
20260504031532 10 0 0.0 1.6 0.00 0.00 0.00 75 1018.9
20260504031011 10 243 0.0 1.6 0.00 0.00 0.00 74 1018.9
20260504030512 11 0 0.0 3.2 0.00 0.00 0.00 73 1019.0
20260504030042 11 0 0.0 3.2 0.00 0.00 0.00 72 1019.2
20260504025512 11 243 0.0 3.2 0.00 0.00 0.00 71 1019.2
20260504025010 11 242 0.0 3.2 0.00 0.00 0.00 70 1019.0
20260504024530 11 0 0.0 1.6 0.00 0.00 0.00 70 1019.1
20260504024014 11 0 0.0 1.6 0.00 0.00 0.00 70 1018.9
20260504023511 11 0 0.0 1.6 0.00 0.00 0.00 70 1018.7
20260504023033 11 0 0.0 0.0 0.00 0.00 0.00 69 1018.7
20260504022511 11 0 0.0 1.6 0.00 0.00 0.00 69 1018.5
20260504022014 12 0 0.0 3.2 0.00 0.00 0.00 69 1018.5
20260504021534 12 242 0.0 3.2 0.00 0.00 0.00 69 1018.5
20260504021012 12 0 0.0 3.2 0.00 0.00 0.00 69 1018.6
20260504020510 12 0 0.0 3.2 0.00 0.00 0.00 67 1018.5
20260504020031 12 0 0.0 3.2 0.00 0.00 0.00 66 1018.4
20260504015513 12 0 0.0 1.6 0.00 0.00 0.00 65 1018.4
20260504015014 13 0 0.0 0.0 0.00 0.00 0.00 64 1018.4
20260504014541 13 0 0.0 0.0 0.00 0.00 0.00 63 1018.4
20260504014013 13 0 0.0 0.0 0.00 0.00 0.00 62 1018.3
20260504013510 13 0 0.0 1.6 0.00 0.00 0.00 62 1018.2
20260504013033 13 0 0.0 1.6 0.00 0.00 0.00 62 1018.1
20260504012514 13 0 0.0 1.6 0.00 0.00 0.00 61 1018.1
20260504012011 13 0 0.0 1.6 0.00 0.00 0.00 61 1017.9
20260504011532 14 0 0.0 1.6 0.00 0.00 0.00 60 1018.0
20260504011013 14 0 0.0 1.6 0.00 0.00 0.00 59 1018.0
20260504010511 15 0 0.0 1.6 0.00 0.00 0.00 59 1018.0
20260504010030 15 0 0.0 0.0 0.00 0.00 0.00 57 1018.0
20260504005510 15 0 0.0 1.6 0.00 0.00 0.00 56 1017.9
20260504005015 15 0 0.0 1.6 0.00 0.00 0.00 56 1017.8
20260504004533 16 0 0.0 6.4 0.00 0.00 0.00 55 1017.7
20260504004012 16 0 1.6 6.4 0.00 0.00 0.00 53 1017.7
20260504003515 17 0 0.0 3.2 0.00 0.00 0.00 50 1017.7
20260504003036 17 0 0.0 3.2 0.00 0.00 0.00 48 1017.7
20260504002511 17 0 0.0 3.2 0.00 0.00 0.00 47 1017.7
20260504002012 17 0 0.0 6.4 0.00 0.00 0.00 47 1017.6
20260504001532 17 244 0.0 14.5 0.00 0.00 0.00 44 1017.7
20260504001012 17 246 4.8 14.5 0.00 0.00 0.00 41 1017.7
20260504000510 18 242 4.8 12.9 0.00 0.00 0.00 41 1017.8
20260504000030 18 257 4.8 12.9 0.00 0.00 0.00 40 1017.7
20260503235512 18 244 4.8 14.5 0.00 0.00 0.00 40 1017.7
20260503235013 18 242 6.4 14.5 0.00 0.00 0.00 39 1017.8
20260503234538 18 242 6.4 14.5 0.00 0.00 0.00 39 1017.9
20260503234011 19 258 4.8 9.7 0.00 0.00 0.00 40 1017.8
20260503233512 19 302 4.8 9.7 0.00 0.00 0.00 39 1017.8
20260503233033 19 257 3.2 9.7 0.00 0.00 0.00 40 1017.8
20260503232512 19 248 3.2 11.3 0.00 0.00 0.00 40 1017.9
20260503232014 19 261 4.8 11.3 0.00 0.00 0.00 40 1017.9
20260503231534 19 246 4.8 11.3 0.00 0.00 0.00 40 1017.9
20260503231014 19 254 4.8 8.0 0.00 0.00 0.00 40 1017.9
20260503230512 19 259 3.2 9.7 0.00 0.00 0.00 39 1017.9
20260503230038 19 256 4.8 9.7 0.00 0.00 0.00 38 1018.0
20260503225510 20 240 1.6 12.9 0.00 0.00 0.00 36 1018.0
20260503225014 20 274 3.2 12.9 0.00 0.00 0.00 37 1018.1
20260503224531 20 264 3.2 8.0 0.00 0.00 0.00 37 1018.0
20260503224011 20 220 0.0 6.4 0.00 0.00 0.00 35 1018.0
20260503223511 20 220 1.6 6.4 0.00 0.00 0.00 34 1018.1
20260503223030 20 221 0.0 4.8 0.00 0.00 0.00 37 1018.1
20260503222510 20 219 0.0 8.0 0.00 0.00 0.00 36 1018.1
20260503222012 20 248 0.0 12.9 0.00 0.00 0.00 35 1018.1
20260503221539 20 248 4.8 12.9 0.00 0.00 0.00 33 1018.1
20260503221009 20 284 6.4 12.9 0.00 0.00 0.00 34 1018.2
20260503220513 20 258 4.8 12.9 0.00 0.00 0.00 35 1018.2
20260503220030 20 260 1.6 8.0 0.00 0.00 0.00 33 1018.1
20260503215512 20 254 1.6 8.0 0.00 0.00 0.00 34 1018.1
20260503215010 20 144 4.8 8.0 0.00 0.00 0.00 34 1018.2
20260503214533 20 219 1.6 8.0 0.00 0.00 0.00 36 1018.1
20260503214014 20 0 1.6 9.7 0.00 0.00 0.00 35 1018.0
20260503213511 20 168 3.2 9.7 0.00 0.00 0.00 35 1018.2
20260503213041 20 150 3.2 11.3 0.00 0.00 0.00 35 1018.3
20260503212510 21 173 3.2 11.3 0.00 0.00 0.00 35 1018.4
20260503212013 21 146 1.6 14.5 0.00 0.00 0.00 40 1018.4
20260503211531 21 331 3.2 14.5 0.00 0.00 0.00 41 1018.4
20260503211010 21 86 3.2 14.5 0.00 0.00 0.00 43 1018.6
20260503210517 22 155 4.8 14.5 0.00 0.00 0.00 41 1018.6
20260503210031 22 109 3.2 12.9 0.00 0.00 0.00 41 1018.6
20260503205507 22 144 4.8 12.9 0.00 0.00 0.00 35 1018.6
20260503205011 22 137 3.2 11.3 0.00 0.00 0.00 39 1018.7
20260503204544 22 161 4.8 11.3 0.00 0.00 0.00 39 1018.7
20260503204012 22 183 1.6 8.0 0.00 0.00 0.00 40 1018.8
20260503203511 22 201 1.6 9.7 0.00 0.00 0.00 42 1018.9
20260503203031 21 147 3.2 11.3 0.00 0.00 0.00 42 1019.0
20260503202511 21 0 1.6 12.9 0.00 0.00 0.00 41 1019.1
20260503202015 21 80 3.2 12.9 0.00 0.00 0.00 42 1019.1
20260503201530 21 178 3.2 12.9 0.00 0.00 0.00 42 1019.2
20260503201010 21 61 3.2 14.5 0.00 0.00 0.00 43 1019.3
20260503200512 21 146 6.4 14.5 0.00 0.00 0.00 41 1019.4
20260503200034 21 136 4.8 14.5 0.00 0.00 0.00 41 1019.5
20260503195510 21 125 3.2 14.5 0.00 0.00 0.00 42 1019.7
20260503195013 21 150 6.4 14.5 0.00 0.00 0.00 41 1019.8
20260503194529 21 150 4.8 17.7 0.00 0.00 0.00 40 1019.9
20260503194013 21 99 6.4 17.7 0.00 0.00 0.00 40 1019.9
20260503193510 21 115 4.8 16.1 0.00 0.00 0.00 43 1020.0
20260503193042 21 94 6.4 16.1 0.00 0.00 0.00 43 1020.1
20260503192512 21 125 6.4 19.3 0.00 0.00 0.00 42 1020.2
20260503192015 21 104 3.2 19.3 0.00 0.00 0.00 43 1020.3
20260503191530 21 104 9.7 19.3 0.00 0.00 0.00 39 1020.4
20260503191013 21 142 3.2 14.5 0.00 0.00 0.00 41 1020.4
20260503190514 21 188 1.6 14.5 0.00 0.00 0.00 45 1020.5
20260503190034 20 253 4.8 14.5 0.00 0.00 0.00 44 1020.5
20260503185513 20 109 6.4 14.5 0.00 0.00 0.00 45 1020.7
20260503185012 20 133 6.4 14.5 0.00 0.00 0.00 46 1020.7
20260503184537 20 197 6.4 22.5 0.00 0.00 0.00 44 1020.8
20260503184017 20 246 3.2 22.5 0.00 0.00 0.00 47 1020.8
20260503183517 20 156 9.7 22.5 0.00 0.00 0.00 43 1020.8
20260503183035 20 352 8.0 19.3 0.00 0.00 0.00 43 1020.9
20260503182512 20 153 3.2 19.3 0.00 0.00 0.00 44 1020.9
20260503182011 20 104 3.2 11.3 0.00 0.00 0.00 46 1020.9
20260503181529 20 150 3.2 11.3 0.00 0.00 0.00 43 1021.1
20260503181011 20 186 1.6 14.5 0.00 0.00 0.00 47 1021.2
20260503180513 19 72 0.0 16.1 0.00 0.00 0.00 46 1021.3
20260503180040 20 120 6.4 16.1 0.00 0.00 0.00 40 1021.4
20260503175512 20 103 1.6 9.7 0.00 0.00 0.00 42 1021.4
20260503175013 19 287 1.6 11.3 0.00 0.00 0.00 41 1021.4
20260503174533 19 63 1.6 16.1 0.00 0.00 0.00 46 1021.5
20260503174012 19 117 4.8 16.1 0.00 0.00 0.00 47 1021.6
20260503173513 19 192 3.2 14.5 0.00 0.00 0.00 45 1021.7
20260503173056 18 53 1.6 14.5 0.00 0.00 0.00 45 1021.8
20260503172513 18 201 4.8 14.5 0.00 0.00 0.00 42 1021.9
20260503172014 18 78 3.2 12.9 0.00 0.00 0.00 45 1021.9
20260503171531 18 86 4.8 9.7 0.00 0.00 0.00 46 1022.0
20260503171012 17 105 1.6 12.9 0.00 0.00 0.00 46 1022.0
20260503170514 18 147 4.8 14.5 0.00 0.00 0.00 46 1022.1
20260503151013 15 352 4.8 9.7 0.00 0.00 0.00 54 1023.2
20260503150510 15 119 3.2 9.7 0.00 0.00 0.00 52 1023.2
20260503131013 8 352 3.2 9.7 0.00 0.00 0.00 89 1023.3
20260503130511 7 352 3.2 9.7 0.00 0.00 0.00 90 1023.2
20260503110513 5 0 0.0 0.0 0.00 0.00 0.00 91 1022.3
20260503090510 6 0 0.0 3.2 0.00 0.00 0.00 87 1021.5